Station Historical Data
Daily Summary for November 4, 2017 Units:  English    Metric   Both
Next Day »
Daily Weekly Monthly Yearly Custom
  High: Low: Average:
Temperature: 48.0 °F 44.0 °F 46.6 °F
Dew Point: 44.6 °F 41.0 °F 43.4 °F
Humidity: 89% 88% 89%
Wind Speed: 18.0mph 0.0mph 3.3mph
Wind Gust: 19.0mph - -
Wind- - South
Pressure: 30.08 in 30.03 in -
Precipitation: 0.00 in    
Historical Graphs
 
 
Tabular Data for November 4, 2017
Time Temperature Dew Point Pressure Wind Wind Speed Wind Gust Humidity Rainfall Rate (Hourly) solar Conditions
00:03 47.8 °F 44.4 °F 30.03 in South 5.0 mph 6.0 mph 88% 0.00 in 0.00 W/m2
00:08 47.8 °F 44.4 °F 30.03 in South 7.0 mph 8.0 mph 88% 0.00 in 0.00 W/m2
00:13 47.8 °F 44.4 °F 30.03 in South 4.0 mph 10.0 mph 88% 0.00 in 0.00 W/m2
00:18 47.8 °F 44.4 °F 30.03 in Calm   13.0 mph 88% 0.00 in 0.00 W/m2
00:23 47.9 °F 44.5 °F 30.03 in South 12.0 mph 13.0 mph 88% 0.00 in 0.00 W/m2
00:28 47.9 °F 44.5 °F 30.03 in Calm   10.0 mph 88% 0.00 in 0.00 W/m2
00:33 47.9 °F 44.5 °F 30.03 in Calm   9.0 mph 88% 0.00 in 0.00 W/m2
00:38 47.9 °F 44.5 °F 30.03 in South 7.0 mph 9.0 mph 88% 0.00 in 0.00 W/m2
00:43 48.0 °F 44.6 °F 30.03 in South 7.0 mph 19.0 mph 88% 0.00 in 0.00 W/m2
00:48 48.0 °F 44.6 °F 30.03 in SW 3.0 mph 11.0 mph 88% 0.00 in 0.00 W/m2
00:53 48.0 °F 44.6 °F 30.03 in Calm   11.0 mph 88% 0.06 in 0.00 W/m2
00:58 48.0 °F 44.6 °F 30.03 in SSW 1.0 mph 4.0 mph 88% 0.06 in 0.00 W/m2
01:03 48.0 °F 44.6 °F 30.03 in Calm   14.0 mph 88% 0.09 in 0.00 W/m2
01:08 47.9 °F 44.5 °F 30.03 in SSW 1.0 mph 13.0 mph 88% 0.08 in 0.00 W/m2
01:13 47.9 °F 44.5 °F 30.03 in Calm   11.0 mph 88% 0.08 in 0.00 W/m2
01:18 47.9 °F 44.5 °F 30.03 in Calm   11.0 mph 88% 0.07 in 0.00 W/m2
01:23 47.8 °F 44.4 °F 30.03 in Calm   9.0 mph 88% 0.07 in 0.00 W/m2
01:28 47.8 °F 44.4 °F 30.03 in Calm   12.0 mph 88% 0.05 in 0.00 W/m2
01:33 47.7 °F 44.3 °F 30.03 in SW 14.0 mph 15.0 mph 88% 0.05 in 0.00 W/m2
01:38 47.7 °F 44.3 °F 30.03 in SSW 1.0 mph 12.0 mph 88% 0.05 in 0.00 W/m2
01:43 47.6 °F 44.2 °F 30.03 in Calm   2.0 mph 88% 0.04 in 0.00 W/m2
01:48 47.6 °F 44.2 °F 30.03 in SSW 8.0 mph 15.0 mph 88% 0.04 in 0.00 W/m2
01:53 47.6 °F 44.2 °F 30.03 in South 4.0 mph 15.0 mph 88% 0.07 in 0.00 W/m2
01:59 47.5 °F 44.1 °F 30.03 in Calm   1.0 mph 88% 0.07 in 0.00 W/m2
02:04 47.5 °F 44.1 °F 30.03 in Calm   9.0 mph 88% 0.07 in 0.00 W/m2
02:09 47.5 °F 44.1 °F 30.03 in SSE 5.0 mph 12.0 mph 88% 0.07 in 0.00 W/m2
02:14 47.6 °F 44.2 °F 30.03 in Calm   5.0 mph 88% 0.05 in 0.00 W/m2
02:19 47.6 °F 44.2 °F 30.03 in SW 5.0 mph 15.0 mph 88% 0.05 in 0.00 W/m2
02:24 47.6 °F 44.2 °F 30.03 in South 1.0 mph 16.0 mph 88% 0.05 in 0.00 W/m2
02:29 47.6 °F 44.2 °F 30.03 in Calm   12.0 mph 88% 0.04 in 0.00 W/m2
02:34 47.6 °F 44.2 °F 30.03 in SW 5.0 mph 18.0 mph 88% 0.00 in 0.00 W/m2
02:39 47.6 °F 44.2 °F 30.03 in SW 9.0 mph 15.0 mph 88% 0.00 in 0.00 W/m2
02:44 47.5 °F 44.1 °F 30.03 in South 4.0 mph 12.0 mph 88% 0.00 in 0.00 W/m2
02:49 47.5 °F 44.1 °F 30.03 in SW 6.0 mph 14.0 mph 88% 0.00 in 0.00 W/m2
02:54 47.5 °F 44.1 °F 30.03 in SSW 13.0 mph 13.0 mph 88% 0.00 in 0.00 W/m2
02:59 47.4 °F 44.0 °F 30.03 in SW 9.0 mph 15.0 mph 88% 0.00 in 0.00 W/m2
03:04 47.4 °F 44.0 °F 30.04 in Calm   11.0 mph 88% 0.00 in 0.00 W/m2
03:09 47.4 °F 44.0 °F 30.04 in SSW 7.0 mph 13.0 mph 88% 0.00 in 0.00 W/m2
03:14 47.4 °F 44.0 °F 30.04 in SW 6.0 mph 18.0 mph 88% 0.00 in 0.00 W/m2
03:19 47.4 °F 44.0 °F 30.03 in SSW 6.0 mph 10.0 mph 88% 0.00 in 0.00 W/m2
03:24 47.4 °F 44.0 °F 30.03 in South 8.0 mph 12.0 mph 88% 0.00 in 0.00 W/m2
03:29 47.4 °F 44.0 °F 30.03 in SSW 7.0 mph 11.0 mph 88% 0.00 in 0.00 W/m2
03:34 47.4 °F 44.0 °F 30.03 in South 2.0 mph 10.0 mph 88% 0.00 in 0.00 W/m2
03:39 47.4 °F 44.0 °F 30.03 in South 8.0 mph 11.0 mph 88% 0.00 in 0.00 W/m2
03:44 47.4 °F 44.0 °F 30.03 in SSE 10.0 mph 14.0 mph 88% 0.00 in 0.00 W/m2
03:49 47.4 °F 44.0 °F 30.03 in South 12.0 mph 12.0 mph 88% 0.00 in 0.00 W/m2
03:54 47.4 °F 44.0 °F 30.03 in Calm   1.0 mph 88% 0.00 in 0.00 W/m2
03:59 47.4 °F 44.0 °F 30.03 in SSW 8.0 mph 13.0 mph 88% 0.00 in 0.00 W/m2
04:04 47.3 °F 43.9 °F 30.03 in SSW 5.0 mph 13.0 mph 88% 0.00 in 0.00 W/m2
04:09 47.3 °F 43.9 °F 30.03 in Calm   1.0 mph 88% 0.00 in 0.00 W/m2
04:14 47.3 °F 43.9 °F 30.03 in Calm     88% 0.00 in 0.00 W/m2
04:19 47.2 °F 43.8 °F 30.03 in Calm     88% 0.00 in 0.00 W/m2
04:24 47.1 °F 43.7 °F 30.03 in Calm     88% 0.00 in 0.00 W/m2
04:29 47.1 °F 43.7 °F 30.03 in South 8.0 mph 14.0 mph 88% 0.00 in 0.00 W/m2
04:34 47.1 °F 43.7 °F 30.03 in Calm     88% 0.00 in 0.00 W/m2
04:39 47.0 °F 43.6 °F 30.03 in South 12.0 mph 12.0 mph 88% 0.00 in 0.00 W/m2
04:44 47.0 °F 43.6 °F 30.03 in South 4.0 mph 13.0 mph 88% 0.00 in 0.00 W/m2
04:49 47.0 °F 43.6 °F 30.03 in South 8.0 mph 17.0 mph 88% 0.00 in 0.00 W/m2
04:52 47.0 °F 43.6 °F 30.03 in SSE 5.0 mph 12.0 mph 88% 0.00 in 0.00 W/m2
04:57 46.9 °F 43.5 °F 30.03 in SSE 12.0 mph 14.0 mph 88% 0.00 in 0.00 W/m2
05:02 46.9 °F 43.5 °F 30.03 in SSE 10.0 mph 12.0 mph 88% 0.00 in 0.00 W/m2
05:07 46.9 °F 43.5 °F 30.03 in SSE 9.0 mph 17.0 mph 88% 0.00 in 0.00 W/m2
05:12 46.8 °F 43.4 °F 30.03 in SSE 5.0 mph 10.0 mph 88% 0.00 in 0.00 W/m2
05:17 46.8 °F 43.4 °F 30.03 in SSE 5.0 mph 11.0 mph 88% 0.00 in 0.00 W/m2
05:22 46.8 °F 43.4 °F 30.03 in SSE 9.0 mph 13.0 mph 88% 0.00 in 0.00 W/m2
05:27 46.7 °F 43.3 °F 30.03 in SSE 8.0 mph 12.0 mph 88% 0.00 in 0.00 W/m2
05:32 46.7 °F 43.3 °F 30.03 in SSE 9.0 mph 12.0 mph 88% 0.00 in 0.00 W/m2
05:37 46.6 °F 43.2 °F 30.03 in SSE 8.0 mph 11.0 mph 88% 0.00 in 0.00 W/m2
05:42 46.6 °F 43.2 °F 30.03 in SSE 12.0 mph 12.0 mph 88% 0.00 in 0.00 W/m2
05:47 46.5 °F 43.1 °F 30.04 in SSE 9.0 mph 11.0 mph 88% 0.00 in 0.00 W/m2
05:52 46.5 °F 43.1 °F 30.03 in SSE 8.0 mph 14.0 mph 88% 0.00 in 0.00 W/m2
05:57 46.5 °F 43.1 °F 30.03 in Calm   13.0 mph 88% 0.00 in 0.00 W/m2
06:02 46.5 °F 43.1 °F 30.04 in SSE 6.0 mph 12.0 mph 88% 0.00 in 0.00 W/m2
06:07 46.5 °F 43.1 °F 30.03 in SSE 4.0 mph 12.0 mph 88% 0.00 in 0.00 W/m2
06:12 46.5 °F 43.4 °F 30.03 in SSE 6.0 mph 15.0 mph 89% 0.00 in 0.00 W/m2
06:17 46.5 °F 43.4 °F 30.04 in SSE 6.0 mph 14.0 mph 89% 0.00 in 0.00 W/m2
06:22 46.5 °F 43.4 °F 30.04 in SSE 5.0 mph 10.0 mph 89% 0.00 in 0.00 W/m2
06:27 46.5 °F 43.4 °F 30.04 in SSE 1.0 mph 10.0 mph 89% 0.00 in 0.00 W/m2
06:32 46.5 °F 43.4 °F 30.03 in SSE 6.0 mph 15.0 mph 89% 0.00 in 0.00 W/m2
06:37 46.5 °F 43.4 °F 30.04 in SSE 5.0 mph 11.0 mph 89% 0.00 in 0.00 W/m2
06:42 46.5 °F 43.4 °F 30.04 in Calm     89% 0.00 in 0.00 W/m2
06:47 46.6 °F 43.5 °F 30.04 in Calm     89% 0.00 in 0.00 W/m2
06:52 46.5 °F 43.4 °F 30.04 in Calm     89% 0.00 in 0.00 W/m2
06:57 46.5 °F 43.4 °F 30.04 in Calm     89% 0.00 in 0.00 W/m2
07:04 46.5 °F 43.4 °F 30.04 in Calm     89% 0.00 in 0.00 W/m2
07:09 46.5 °F 43.4 °F 30.04 in Calm     89% 0.00 in 0.00 W/m2
07:14 46.4 °F 43.3 °F 30.04 in SE 8.0 mph 11.0 mph 89% 0.00 in 0.00 W/m2
07:19 46.4 °F 43.3 °F 30.04 in SSE 7.0 mph 13.0 mph 89% 0.00 in 0.00 W/m2
07:24 46.3 °F 43.2 °F 30.04 in SSE 5.0 mph 12.0 mph 89% 0.00 in 0.00 W/m2
07:29 46.3 °F 43.2 °F 30.04 in SSE 10.0 mph 12.0 mph 89% 0.00 in 0.00 W/m2
07:34 46.2 °F 43.1 °F 30.04 in SSE 8.0 mph 12.0 mph 89% 0.00 in 0.00 W/m2
07:39 46.2 °F 42.8 °F 30.04 in SSE 6.0 mph 13.0 mph 88% 0.00 in 0.00 W/m2
07:44 46.2 °F 42.8 °F 30.04 in SSE 6.0 mph 14.0 mph 88% 0.00 in 0.00 W/m2
07:49 46.1 °F 42.8 °F 30.04 in SSE 18.0 mph 18.0 mph 88% 0.00 in 0.00 W/m2
07:54 46.1 °F 42.8 °F 30.05 in SSE 5.0 mph 16.0 mph 88% 0.00 in 0.00 W/m2
07:59 46.1 °F 42.8 °F 30.05 in South 7.0 mph 17.0 mph 88% 0.00 in 5.00 W/m2
08:04 46.0 °F 42.7 °F 30.05 in SSE 6.0 mph 14.0 mph 88% 0.00 in 5.00 W/m2
08:09 46.0 °F 42.7 °F 30.05 in SSE 9.0 mph 13.0 mph 88% 0.00 in 5.00 W/m2
08:14 46.0 °F 42.7 °F 30.05 in SSE 8.0 mph 13.0 mph 88% 0.00 in 5.00 W/m2
08:19 46.0 °F 42.7 °F 30.05 in SSE 6.0 mph 13.0 mph 88% 0.00 in 5.00 W/m2
08:24 46.0 °F 42.7 °F 30.05 in SSE 7.0 mph 12.0 mph 88% 0.00 in 9.00 W/m2
08:29 46.0 °F 43.0 °F 30.05 in SSE 11.0 mph 12.0 mph 89% 0.00 in 12.00 W/m2
08:34 45.9 °F 42.5 °F 30.05 in SE 9.0 mph 14.0 mph 88% 0.00 in 12.00 W/m2
08:39 45.9 °F 42.8 °F 30.06 in SSE 7.0 mph 14.0 mph 89% 0.00 in 14.00 W/m2
08:44 45.9 °F 42.8 °F 30.06 in SE 10.0 mph 13.0 mph 89% 0.00 in 14.00 W/m2
08:49 45.9 °F 42.5 °F 30.06 in SSE 5.0 mph 14.0 mph 88% 0.00 in 16.00 W/m2
12:46 46.4 °F 43.3 °F 30.07 in South 13.0 mph 13.0 mph 89% 0.00 in 44.00 W/m2
12:51 46.5 °F 43.4 °F 30.06 in South 12.0 mph 12.0 mph 89% 0.00 in 30.00 W/m2
12:56 46.5 °F 43.4 °F 30.06 in SSW 6.0 mph 10.0 mph 89% 0.00 in 33.00 W/m2
13:01 46.5 °F 43.4 °F 30.06 in South 4.0 mph 11.0 mph 89% 0.00 in 33.00 W/m2
13:06 46.5 °F 43.4 °F 30.06 in SSE 2.0 mph 11.0 mph 89% 0.00 in 39.00 W/m2
13:11 46.6 °F 43.5 °F 30.06 in South 10.0 mph 12.0 mph 89% 0.00 in 35.00 W/m2
13:16 46.5 °F 43.4 °F 30.06 in SSW 9.0 mph 12.0 mph 89% 0.00 in 26.00 W/m2
13:21 46.5 °F 43.4 °F 30.06 in South 7.0 mph 10.0 mph 89% 0.00 in 32.00 W/m2
13:26 46.5 °F 43.4 °F 30.05 in South 2.0 mph 10.0 mph 89% 0.00 in 30.00 W/m2
13:31 46.6 °F 43.5 °F 30.05 in South 8.0 mph 8.0 mph 89% 0.00 in 39.00 W/m2
13:36 46.6 °F 43.5 °F 30.05 in South 4.0 mph 12.0 mph 89% 0.00 in 35.00 W/m2
13:41 46.7 °F 43.6 °F 30.05 in SSW 3.0 mph 10.0 mph 89% 0.00 in 28.00 W/m2
13:46 46.7 °F 43.6 °F 30.05 in Calm     89% 0.00 in 32.00 W/m2
13:51 46.7 °F 43.6 °F 30.05 in South 5.0 mph 12.0 mph 89% 0.00 in 39.00 W/m2
13:56 46.7 °F 43.6 °F 30.05 in Calm   5.0 mph 89% 0.00 in 30.00 W/m2
14:01 46.8 °F 43.7 °F 30.05 in Calm     89% 0.00 in 30.00 W/m2
14:07 46.8 °F 43.7 °F 30.05 in Calm   6.0 mph 89% 0.00 in 39.00 W/m2
14:11 46.8 °F 43.7 °F 30.04 in Calm     89% 0.00 in 37.00 W/m2
14:16 46.9 °F 43.8 °F 30.04 in South 9.0 mph 9.0 mph 89% 0.00 in 46.00 W/m2
14:22 46.9 °F 43.8 °F 30.04 in SSW 5.0 mph 9.0 mph 89% 0.00 in 46.00 W/m2
14:27 46.9 °F 43.8 °F 30.04 in South 11.0 mph 12.0 mph 89% 0.00 in 62.00 W/m2
14:32 47.0 °F 43.9 °F 30.04 in South 10.0 mph 14.0 mph 89% 0.00 in 53.00 W/m2
14:37 47.0 °F 43.9 °F 30.04 in South 3.0 mph 10.0 mph 89% 0.00 in 54.00 W/m2
14:42 47.1 °F 44.0 °F 30.04 in SSE 9.0 mph 15.0 mph 89% 0.00 in 51.00 W/m2
14:47 47.1 °F 44.0 °F 30.04 in South 3.0 mph 13.0 mph 89% 0.00 in 58.00 W/m2
14:52 47.2 °F 44.1 °F 30.04 in South 11.0 mph 14.0 mph 89% 0.00 in 56.00 W/m2
14:57 47.2 °F 44.1 °F 30.03 in South 7.0 mph 10.0 mph 89% 0.00 in 44.00 W/m2
15:02 47.2 °F 44.1 °F 30.03 in Calm     89% 0.00 in 39.00 W/m2
15:07 47.3 °F 44.2 °F 30.03 in South 1.0 mph 12.0 mph 89% 0.00 in 53.00 W/m2
15:12 47.3 °F 44.2 °F 30.03 in South 3.0 mph 9.0 mph 89% 0.00 in 23.00 W/m2
15:17 47.3 °F 44.2 °F 30.03 in South 3.0 mph 10.0 mph 89% 0.00 in 46.00 W/m2
15:22 47.4 °F 44.3 °F 30.03 in South 7.0 mph 7.0 mph 89% 0.00 in 37.00 W/m2
15:27 47.4 °F 44.3 °F 30.03 in SSW 6.0 mph 11.0 mph 89% 0.00 in 46.00 W/m2
15:32 47.4 °F 44.3 °F 30.03 in South 7.0 mph 10.0 mph 89% 0.00 in 47.00 W/m2
15:37 47.4 °F 44.3 °F 30.03 in South 3.0 mph 6.0 mph 89% 0.00 in 23.00 W/m2
15:42 47.4 °F 44.3 °F 30.03 in Calm     89% 0.00 in 44.00 W/m2
15:47 47.5 °F 44.4 °F 30.03 in SSE 2.0 mph 8.0 mph 89% 0.00 in 26.00 W/m2
15:52 47.5 °F 44.4 °F 30.03 in South 6.0 mph 9.0 mph 89% 0.00 in 28.00 W/m2
15:57 47.5 °F 44.4 °F 30.03 in South 7.0 mph 8.0 mph 89% 0.00 in 28.00 W/m2
16:02 47.5 °F 44.4 °F 30.03 in South 5.0 mph 11.0 mph 89% 0.00 in 40.00 W/m2
16:07 47.5 °F 44.4 °F 30.03 in SSW 5.0 mph 9.0 mph 89% 0.00 in 23.00 W/m2
16:12 47.6 °F 44.5 °F 30.03 in Calm   6.0 mph 89% 5.26 in 70.00 W/m2
16:17 47.6 °F 44.5 °F 30.03 in SW 1.0 mph 9.0 mph 89% 0.17 in 30.00 W/m2
16:22 47.6 °F 44.5 °F 30.03 in South 2.0 mph 8.0 mph 89% 0.07 in 25.00 W/m2
16:27 47.6 °F 44.5 °F 30.03 in Calm   17.0 mph 89% 0.05 in 37.00 W/m2
16:32 47.6 °F 44.5 °F 30.03 in SSW 8.0 mph 10.0 mph 89% 0.05 in 12.00 W/m2
16:37 47.5 °F 44.4 °F 30.03 in Calm   9.0 mph 89% 0.05 in 23.00 W/m2
16:42 47.5 °F 44.4 °F 30.03 in Calm   7.0 mph 89% 0.06 in 23.00 W/m2
16:47 47.4 °F 44.3 °F 30.03 in South 7.0 mph 9.0 mph 89% 0.06 in 14.00 W/m2
16:52 47.4 °F 44.3 °F 30.03 in Calm   10.0 mph 89% 0.04 in 21.00 W/m2
16:57 47.4 °F 44.3 °F 30.03 in SSW 4.0 mph 10.0 mph 89% 0.00 in 11.00 W/m2
17:02 47.4 °F 44.3 °F 30.03 in SSW 7.0 mph 11.0 mph 89% 0.00 in 14.00 W/m2
17:07 47.4 °F 44.3 °F 30.03 in Calm   9.0 mph 89% 0.00 in 12.00 W/m2
17:12 47.4 °F 44.3 °F 30.03 in SW 10.0 mph 10.0 mph 89% 0.00 in 25.00 W/m2
17:17 47.3 °F 44.2 °F 30.03 in Calm     89% 0.00 in 14.00 W/m2
17:22 47.3 °F 44.2 °F 30.03 in Calm     89% 0.00 in 9.00 W/m2
17:27 47.3 °F 44.2 °F 30.03 in Calm     89% 0.00 in 9.00 W/m2
17:32 47.3 °F 44.2 °F 30.03 in Calm     89% 0.00 in 28.00 W/m2
17:37 47.3 °F 44.2 °F 30.03 in Calm     89% 0.00 in 5.00 W/m2
17:42 47.3 °F 44.2 °F 30.03 in Calm     89% 0.00 in 0.00 W/m2
17:47 47.3 °F 44.2 °F 30.03 in Calm     89% 0.00 in 0.00 W/m2
17:52 47.3 °F 44.2 °F 30.03 in Calm     89% 0.00 in 0.00 W/m2
17:57 47.3 °F 44.2 °F 30.03 in Calm     89% 0.00 in 0.00 W/m2
18:02 47.4 °F 44.3 °F 30.03 in Calm     89% 0.00 in 0.00 W/m2
18:07 47.4 °F 44.3 °F 30.03 in Calm     89% 0.00 in 0.00 W/m2
18:12 47.4 °F 44.3 °F 30.03 in Calm     89% 0.05 in 0.00 W/m2
18:17 47.4 °F 44.3 °F 30.03 in Calm     89% 0.09 in 0.00 W/m2
18:22 47.4 °F 44.3 °F 30.04 in Calm     89% 0.21 in 0.00 W/m2
18:27 47.3 °F 44.2 °F 30.04 in Calm     89% 0.15 in 0.00 W/m2
18:33 47.3 °F 44.2 °F 30.04 in Calm     89% 0.21 in 0.00 W/m2
18:37 47.3 °F 44.2 °F 30.04 in Calm     89% 0.08 in 0.00 W/m2
18:43 47.2 °F 44.1 °F 30.04 in Calm     89% 0.05 in 0.00 W/m2
18:48 47.2 °F 44.1 °F 30.04 in Calm     89% 0.00 in 0.00 W/m2
18:53 47.1 °F 44.0 °F 30.04 in Calm     89% 0.00 in 0.00 W/m2
18:58 47.0 °F 43.9 °F 30.04 in Calm     89% 0.00 in 0.00 W/m2
19:03 47.0 °F 43.9 °F 30.04 in Calm     89% 0.00 in 0.00 W/m2
19:08 46.9 °F 43.8 °F 30.04 in Calm     89% 0.00 in 0.00 W/m2
19:13 46.8 °F 43.7 °F 30.04 in Calm     89% 0.00 in 0.00 W/m2
19:18 46.7 °F 43.6 °F 30.04 in Calm     89% 0.00 in 0.00 W/m2
19:23 46.6 °F 43.5 °F 30.04 in Calm     89% 0.00 in 0.00 W/m2
19:28 46.5 °F 43.4 °F 30.05 in Calm     89% 0.00 in 0.00 W/m2
19:33 46.4 °F 43.3 °F 30.05 in Calm     89% 0.00 in 0.00 W/m2
19:43 46.1 °F 43.0 °F 30.05 in Calm     89% 0.00 in 0.00 W/m2
19:48 45.9 °F 42.8 °F 30.05 in Calm     89% 0.00 in 0.00 W/m2
19:53 45.9 °F 42.8 °F 30.05 in Calm     89% 0.00 in 0.00 W/m2
19:58 45.8 °F 42.8 °F 30.05 in Calm   1.0 mph 89% 0.00 in 0.00 W/m2
20:03 45.8 °F 42.8 °F 30.05 in Calm     89% 0.00 in 0.00 W/m2
20:08 45.8 °F 42.8 °F 30.05 in Calm     89% 0.00 in 0.00 W/m2
20:19 45.6 °F 42.5 °F 30.05 in Calm     89% 0.00 in 0.00 W/m2
20:20 45.6 °F 42.5 °F 30.05 in Calm     89% 0.00 in 0.00 W/m2
20:21 45.6 °F 42.5 °F 30.05 in Calm     89% 0.00 in 0.00 W/m2
20:23 45.5 °F 42.5 °F 30.05 in Calm     89% 0.00 in 0.00 W/m2
20:26 45.5 °F 42.5 °F 30.05 in Calm     89% 0.00 in 0.00 W/m2
20:29 45.5 °F 42.5 °F 30.06 in Calm     89% 0.00 in 0.00 W/m2
20:31 45.5 °F 42.5 °F 30.06 in Calm     89% 0.00 in 0.00 W/m2
20:36 45.5 °F 42.5 °F 30.06 in Calm     89% 0.00 in 0.00 W/m2
20:41 45.5 °F 42.5 °F 30.06 in Calm     89% 0.00 in 0.00 W/m2
20:46 45.4 °F 42.3 °F 30.06 in Calm     89% 0.00 in 0.00 W/m2
20:51 45.4 °F 42.3 °F 30.06 in Calm     89% 0.00 in 0.00 W/m2
20:56 45.4 °F 42.3 °F 30.06 in Calm     89% 0.00 in 0.00 W/m2
21:01 45.4 °F 42.3 °F 30.06 in Calm     89% 0.00 in 0.00 W/m2
21:06 45.4 °F 42.3 °F 30.06 in Calm     89% 0.00 in 0.00 W/m2
21:11 45.4 °F 42.3 °F 30.06 in Calm     89% 0.00 in 0.00 W/m2
21:16 45.4 °F 42.3 °F 30.06 in Calm     89% 0.00 in 0.00 W/m2
21:21 45.4 °F 42.3 °F 30.06 in Calm     89% 0.00 in 0.00 W/m2
21:26 45.4 °F 42.3 °F 30.06 in Calm     89% 0.00 in 0.00 W/m2
21:31 45.4 °F 42.3 °F 30.07 in Calm     89% 0.00 in 0.00 W/m2
21:36 45.4 °F 42.3 °F 30.07 in Calm     89% 0.00 in 0.00 W/m2
21:41 45.4 °F 42.3 °F 30.07 in Calm     89% 0.00 in 0.00 W/m2
21:46 45.3 °F 42.3 °F 30.07 in Calm     89% 0.00 in 0.00 W/m2
21:51 45.3 °F 42.3 °F 30.07 in Calm     89% 0.00 in 0.00 W/m2
21:56 45.3 °F 42.3 °F 30.07 in Calm     89% 0.00 in 0.00 W/m2
22:01 45.3 °F 42.3 °F 30.08 in Calm     89% 0.00 in 0.00 W/m2
22:06 45.2 °F 42.2 °F 30.08 in Calm     89% 0.00 in 0.00 W/m2
22:12 45.1 °F 42.1 °F 30.08 in Calm     89% 0.00 in 0.00 W/m2
22:16 45.0 °F 42.0 °F 30.08 in Calm     89% 0.00 in 0.00 W/m2
22:22 44.6 °F 41.6 °F 30.08 in Calm     89% 0.00 in 0.00 W/m2
22:27 44.5 °F 41.5 °F 30.08 in Calm     89% 0.00 in 0.00 W/m2
22:32 44.4 °F 41.4 °F 30.07 in Calm     89% 0.00 in 0.00 W/m2
22:37 44.4 °F 41.4 °F 30.08 in Calm     89% 0.00 in 0.00 W/m2
22:42 44.4 °F 41.4 °F 30.08 in Calm     89% 0.00 in 0.00 W/m2
22:47 44.4 °F 41.4 °F 30.08 in Calm     89% 0.00 in 0.00 W/m2
22:52 44.4 °F 41.4 °F 30.08 in Calm     89% 0.00 in 0.00 W/m2
22:57 44.5 °F 41.5 °F 30.08 in Calm     89% 0.00 in 0.00 W/m2
23:02 44.4 °F 41.4 °F 30.08 in Calm     89% 0.00 in 0.00 W/m2
23:07 44.3 °F 41.3 °F 30.08 in Calm     89% 0.00 in 0.00 W/m2
23:12 44.3 °F 41.3 °F 30.08 in Calm     89% 0.00 in 0.00 W/m2
23:17 44.2 °F 41.2 °F 30.08 in Calm     89% 0.00 in 0.00 W/m2
23:22 44.2 °F 41.2 °F 30.08 in Calm     89% 0.00 in 0.00 W/m2
23:27 44.2 °F 41.2 °F 30.08 in Calm     89% 0.00 in 0.00 W/m2
23:32 44.1 °F 41.1 °F 30.07 in Calm     89% 0.00 in 0.00 W/m2
23:37 44.0 °F 41.0 °F 30.07 in Calm     89% 0.00 in 0.00 W/m2
23:42 44.0 °F 41.0 °F 30.07 in Calm     89% 0.00 in 0.00 W/m2
23:47 44.0 °F 41.0 °F 30.07 in Calm     89% 0.00 in 0.00 W/m2
23:52 44.0 °F 41.0 °F 30.07 in Calm     89% 0.00 in 0.00 W/m2
23:57 44.0 °F 41.0 °F 30.07 in Calm     89% 0.00 in 0.00 W/m2
Foresthill Weather
 WU-history PHP script courtesy of   Juneau County Weather.
powered by Cumulus v1.9.3 (1059)
Ambient Weather VWS v14.00
Top Contact Website Map Copyright © 2007 - 2018 Foresthillweather.com Never base important decisions on this or any weather information obtained from the Internet